QPF
0.00 0.00 0.00 0.00 0.00 0.00 0.00 0.00 0.00 0.00 0.00 0.00 0.00 0.00 0.00 0.00 0.00 0.00 0.00 0.00 0.00 0.00 0.00 0.00 0.00 0.00 0.00 0.01 0.05 0.11 0.17 0.21 0.21 0.25 0.22 0.20 0.18 0.19 0.16 0.11 0.08 0.07 0.06 0.06
0.00 0.00 0.00 0.00 0.00 0.00 0.00 0.00 0.00 0.00 0.00 0.00 0.00 0.00 0.00 0.00 0.00 0.00 0.00 0.00 0.00 0.00 0.00 0.00 0.00 0.00 0.00 0.01 0.03 0.07 0.10 0.12 0.11 0.14 0.14 0.13 0.13 0.14 0.13 0.12 0.14 0.11 0.10 0.09
0.00 0.00 0.00 0.00 0.00 0.00 0.00 0.00 0.00 0.00 0.00 0.00 0.00 0.00 0.00 0.00 0.00 0.00 0.00 0.00 0.00 0.00 0.00 0.00 0.00 0.00 0.00 0.00 0.01 0.01 0.03 0.04 0.04 0.04 0.04 0.04 0.05 0.03 0.03 0.06 0.08 0.06 0.07 0.07
0.00 0.00 0.00 0.00 0.00 0.00 0.00 0.00 0.00 0.00 0.00 0.00 0.00 0.00 0.00 0.00 0.00 0.00 0.00 0.00 0.00 0.00 0.00 0.00 0.00 0.00 0.00 0.00 0.00 0.00 0.01 0.01 0.02 0.03 0.03 0.03 0.03 0.02 0.03 0.06 0.08 0.08 0.06 0.06
0.00 0.00 0.00 0.00 0.00 0.00 0.00 0.00 0.00 0.00 0.00 0.00 0.00 0.00 0.00 0.00 0.00 0.01 0.01 0.00 0.00 0.00 0.00 0.00 0.00 0.00 0.00 0.00 0.00 0.00 0.00 0.00 0.01 0.01 0.02 0.02 0.02 0.02 0.03 0.05 0.07 0.08 0.06 0.05
0.00 0.00 0.00 0.00 0.00 0.00 0.00 0.00 0.00 0.00 0.00 0.00 0.00 0.00 0.00 0.00 0.00 0.00 0.00 0.00 0.00 0.00 0.00 0.00 0.00 0.00 0.00 0.00 0.00 0.00 0.00 0.00 0.00 0.01 0.01 0.02 0.02 0.02 0.03 0.05 0.06 0.07 0.07 0.06
0.00 0.00 0.00 0.00 0.00 0.00 0.00 0.00 0.00 0.00 0.00 0.01 0.01 0.01 0.00 0.00 0.00 0.00 0.00 0.00 0.00 0.00 0.00 0.00 0.00 0.00 0.00 0.00 0.00 0.00 0.00 0.00 0.00 0.00 0.01 0.02 0.03 0.05 0.06 0.08 0.10 0.11 0.11 0.12
0.00 0.00 0.00 0.00 0.00 0.00 0.00 0.00 0.00 0.00 0.00 0.00 0.00 0.00 0.00 0.00 0.00 0.00 0.00 0.00 0.00 0.00 0.00 0.00 0.00 0.00 0.00 0.00 0.00 0.00 0.00 0.00 0.00 0.01 0.03 0.04 0.07 0.09 0.10 0.12 0.14 0.16 0.18 0.19
0.00 0.00 0.00 0.00 0.00 0.00 0.00 0.00 0.00 0.00 0.00 0.00 0.00 0.00 0.00 0.00 0.00 0.00 0.00 0.00 0.00 0.00 0.00 0.00 0.00 0.00 0.00 0.00 0.00 0.00 0.00 0.00 0.01 0.02 0.05 0.08 0.10 0.12 0.13 0.16 0.19 0.21 0.24 0.25
0.00 0.00 0.00 0.00 0.00 0.00 0.00 0.00 0.00 0.00 0.00 0.00 0.00 0.00 0.00 0.00 0.00 0.00 0.00 0.00 0.00 0.00 0.00 0.00 0.00 0.00 0.00 0.00 0.00 0.00 0.00 0.00 0.01 0.04 0.07 0.08 0.10 0.10 0.14 0.22 0.27 0.29 0.32 0.33
0.00 0.00 0.00 0.00 0.00 0.00 0.00 0.00 0.00 0.00 0.00 0.00 0.00 0.00 0.00 0.00 0.00 0.00 0.00 0.00 0.00 0.00 0.00 0.00 0.00 0.00 0.00 0.00 0.00 0.00 0.00 0.01 0.03 0.05 0.06 0.07 0.09 0.11 0.14 0.18 0.21 0.23 0.28 0.35
0.00 0.00 0.00 0.00 0.00 0.00 0.00 0.00 0.00 0.00 0.00 0.00 0.00 0.00 0.00 0.00 0.00 0.00 0.00 0.00 0.00 0.00 0.00 0.00 0.00 0.00 0.00 0.00 0.00 0.01 0.01 0.02 0.04 0.05 0.09 0.11 0.11 0.12 0.14 0.14 0.14 0.19 0.25 0.32
0.00 0.00 0.00 0.00 0.01 0.00 0.00 0.00 0.00 0.00 0.00 0.00 0.00 0.00 0.00 0.00 0.00 0.00 0.00 0.00 0.00 0.00 0.00 0.00 0.00 0.00 0.00 0.00 0.00 0.01 0.01 0.02 0.03 0.04 0.05 0.06 0.07 0.09 0.10 0.10 0.14 0.21 0.28 0.30
0.00 0.00 0.00 0.00 0.00 0.00 0.00 0.00 0.00 0.00 0.00 0.00 0.00 0.00 0.00 0.00 0.00 0.00 0.00 0.00 0.00 0.00 0.00 0.00 0.00 0.00 0.00 0.00 0.00 0.02 0.04 0.06 0.05 0.05 0.04 0.04 0.04 0.04 0.06 0.09 0.13 0.16 0.16 0.17
0.00 0.00 0.00 0.00 0.00 0.00 0.00 0.00 0.00 0.00 0.00 0.00 0.00 0.00 0.00 0.00 0.00 0.00 0.00 0.00 0.00 0.00 0.00 0.00 0.00 0.00 0.00 0.00 0.01 0.02 0.04 0.05 0.07 0.11 0.10 0.07 0.04 0.02 0.01 0.02 0.04 0.06 0.10 0.12
0.00 0.00 0.00 0.00 0.00 0.00 0.00 0.00 0.00 0.00 0.00 0.00 0.00 0.00 0.00 0.00 0.00 0.00 0.00 0.00 0.00 0.00 0.00 0.00 0.00 0.00 0.00 0.00 0.01 0.02 0.03 0.05 0.09 0.15 0.16 0.12 0.08 0.03 0.01 0.01 0.01 0.04 0.06 0.07
0.00 0.00 0.00 0.00 0.00 0.00 0.00 0.00 0.00 0.00 0.00 0.00 0.00 0.00 0.00 0.00 0.00 0.00 0.00 0.00 0.00 0.00 0.00 0.00 0.00 0.00 0.00 0.00 0.01 0.02 0.02 0.02 0.08 0.18 0.21 0.16 0.13 0.05 0.01 0.01 0.02 0.03 0.03 0.04
0.00 0.00 0.00 0.00 0.00 0.00 0.00 0.00 0.00 0.00 0.00 0.00 0.00 0.00 0.00 0.00 0.00 0.00 0.00 0.00 0.00 0.00 0.00 0.00 0.00 0.00 0.00 0.00 0.00 0.01 0.01 0.01 0.05 0.15 0.21 0.21 0.15 0.06 0.02 0.02 0.03 0.02 0.03 0.06
0.00 0.00 0.00 0.00 0.00 0.00 0.00 0.00 0.00 0.00 0.00 0.00 0.00 0.00 0.00 0.00 0.00 0.00 0.00 0.00 0.00 0.00 0.00 0.00 0.00 0.00 0.00 0.00 0.00 0.00 0.00 0.00 0.02 0.10 0.18 0.22 0.17 0.08 0.03 0.04 0.04 0.03 0.04 0.06
0.00 0.00 0.00 0.00 0.00 0.01 0.00 0.00 0.00 0.00 0.01 0.01 0.00 0.00 0.00 0.01 0.03 0.01 0.00 0.00 0.00 0.00 0.00 0.00 0.00 0.00 0.00 0.00 0.00 0.00 0.00 0.01 0.02 0.05 0.13 0.20 0.21 0.15 0.09 0.08 0.05 0.03 0.04 0.06
0.00 0.00 0.00 0.00 0.01 0.00 0.00 0.00 0.00 0.02 0.04 0.01 0.01 0.01 0.02 0.05 0.07 0.03 0.01 0.01 0.01 0.01 0.00 0.00 0.00 0.00 0.00 0.00 0.00 0.00 0.00 0.00 0.01 0.03 0.08 0.15 0.23 0.21 0.18 0.15 0.09 0.05 0.05 0.07
0.00 0.00 0.00 0.00 0.01 0.01 0.00 0.00 0.02 0.04 0.03 0.04 0.04 0.04 0.04 0.03 0.02 0.01 0.01 0.01 0.00 0.00 0.01 0.01 0.01 0.01 0.01 0.00 0.00 0.00 0.00 0.00 0.00 0.03 0.09 0.16 0.20 0.13 0.12 0.15 0.13 0.11 0.10 0.10
0.00 0.00 0.00 0.01 0.01 0.01 0.00 0.01 0.02 0.03 0.05 0.05 0.05 0.03 0.02 0.02 0.02 0.02 0.01 0.01 0.01 0.01 0.02 0.03 0.04 0.05 0.05 0.05 0.04 0.01 0.00 0.00 0.01 0.03 0.08 0.14 0.16 0.15 0.19 0.16 0.13 0.12 0.11 0.10
0.00 0.00 0.01 0.04 0.03 0.01 0.02 0.02 0.02 0.02 0.02 0.02 0.02 0.01 0.02 0.03 0.04 0.04 0.03 0.03 0.02 0.02 0.02 0.03 0.07 0.12 0.18 0.20 0.14 0.05 0.02 0.01 0.01 0.03 0.07 0.11 0.14 0.15 0.16 0.16 0.13 0.10 0.08 0.08
0.00 0.00 0.01 0.03 0.02 0.01 0.01 0.01 0.01 0.01 0.01 0.01 0.01 0.01 0.02 0.04 0.05 0.06 0.05 0.05 0.04 0.03 0.03 0.05 0.09 0.16 0.24 0.33 0.28 0.12 0.04 0.02 0.01 0.03 0.06 0.08 0.10 0.12 0.12 0.12 0.12 0.12 0.11 0.07
0.00 0.00 0.00 0.01 0.01 0.01 0.01 0.01 0.01 0.01 0.01 0.02 0.02 0.02 0.03 0.04 0.05 0.05 0.05 0.05 0.04 0.04 0.05 0.08 0.14 0.18 0.21 0.29 0.36 0.24 0.11 0.04 0.02 0.02 0.04 0.04 0.05 0.08 0.08 0.09 0.04 0.02 0.04 0.01
MSLP
1009.61 1009.90 1010.03 1010.03 1009.95 1009.82 1009.69 1009.57 1009.45 1009.29 1009.08 1008.79 1008.44 1008.04 1007.66 1007.36 1007.19 1007.20 1007.37 1007.67 1008.04 1008.41 1008.70 1008.86 1008.88 1008.78 1008.62 1008.46 1008.37 1008.39 1008.54 1008.78 1009.07 1009.33 1009.49 1009.51 1009.39 1009.13 1008.79 1008.46 1008.21 1008.08 1008.11 1008.29
1010.00 1010.22 1010.30 1010.27 1010.19 1010.11 1010.04 1009.99 1009.94 1009.85 1009.67 1009.39 1009.01 1008.57 1008.14 1007.78 1007.57 1007.54 1007.70 1008.02 1008.41 1008.81 1009.12 1009.28 1009.29 1009.15 1008.94 1008.71 1008.56 1008.52 1008.62 1008.83 1009.09 1009.33 1009.48 1009.48 1009.33 1009.03 1008.65 1008.27 1007.97 1007.80 1007.79 1007.96
1010.30 1010.44 1010.46 1010.42 1010.37 1010.35 1010.37 1010.43 1010.47 1010.45 1010.31 1010.03 1009.62 1009.11 1008.59 1008.14 1007.84 1007.75 1007.86 1008.16 1008.56 1008.97 1009.31 1009.50 1009.52 1009.39 1009.16 1008.90 1008.70 1008.60 1008.65 1008.81 1009.02 1009.22 1009.34 1009.31 1009.13 1008.80 1008.38 1007.96 1007.62 1007.42 1007.39 1007.54
1010.47 1010.52 1010.50 1010.46 1010.46 1010.53 1010.68 1010.86 1011.02 1011.08 1010.99 1010.71 1010.25 1009.66 1009.03 1008.45 1008.03 1007.82 1007.85 1008.09 1008.47 1008.89 1009.25 1009.48 1009.55 1009.45 1009.24 1008.98 1008.76 1008.63 1008.62 1008.73 1008.89 1009.04 1009.10 1009.04 1008.82 1008.46 1008.02 1007.58 1007.21 1006.98 1006.93 1007.06
1010.52 1010.49 1010.43 1010.41 1010.48 1010.67 1010.94 1011.27 1011.56 1011.72 1011.68 1011.41 1010.91 1010.23 1009.46 1008.74 1008.16 1007.80 1007.71 1007.85 1008.17 1008.57 1008.96 1009.24 1009.36 1009.33 1009.17 1008.95 1008.75 1008.61 1008.57 1008.62 1008.72 1008.82 1008.84 1008.73 1008.48 1008.11 1007.65 1007.19 1006.80 1006.55 1006.47 1006.56
1010.48 1010.38 1010.30 1010.32 1010.46 1010.76 1011.17 1011.64 1012.05 1012.32 1012.35 1012.09 1011.55 1010.79 1009.91 1009.03 1008.28 1007.75 1007.50 1007.51 1007.75 1008.11 1008.49 1008.81 1009.01 1009.06 1008.99 1008.84 1008.68 1008.56 1008.51 1008.53 1008.59 1008.64 1008.61 1008.48 1008.21 1007.82 1007.37 1006.90 1006.50 1006.22 1006.09 1006.14
1010.40 1010.26 1010.18 1010.23 1010.45 1010.84 1011.37 1011.95 1012.48 1012.84 1012.93 1012.70 1012.15 1011.33 1010.34 1009.32 1008.41 1007.72 1007.30 1007.17 1007.29 1007.58 1007.94 1008.29 1008.55 1008.69 1008.72 1008.66 1008.58 1008.50 1008.47 1008.48 1008.52 1008.54 1008.49 1008.34 1008.07 1007.69 1007.24 1006.77 1006.36 1006.05 1005.88 1005.85
1010.36 1010.20 1010.13 1010.21 1010.48 1010.94 1011.54 1012.20 1012.81 1013.23 1013.37 1013.17 1012.62 1011.77 1010.73 1009.61 1008.58 1007.73 1007.16 1006.88 1006.87 1007.07 1007.40 1007.75 1008.06 1008.29 1008.41 1008.46 1008.46 1008.45 1008.46 1008.49 1008.53 1008.54 1008.48 1008.34 1008.08 1007.73 1007.30 1006.85 1006.43 1006.09 1005.86 1005.75
1010.41 1010.26 1010.21 1010.31 1010.60 1011.07 1011.69 1012.36 1012.98 1013.42 1013.59 1013.42 1012.89 1012.06 1011.00 1009.85 1008.74 1007.79 1007.09 1006.69 1006.56 1006.66 1006.93 1007.27 1007.60 1007.89 1008.10 1008.25 1008.34 1008.41 1008.47 1008.54 1008.59 1008.61 1008.58 1008.45 1008.23 1007.91 1007.52 1007.10 1006.69 1006.32 1006.03 1005.84
1010.59 1010.49 1010.46 1010.55 1010.81 1011.24 1011.78 1012.39 1012.95 1013.36 1013.52 1013.37 1012.88 1012.10 1011.08 1009.96 1008.84 1007.86 1007.09 1006.59 1006.36 1006.37 1006.57 1006.87 1007.21 1007.53 1007.81 1008.03 1008.20 1008.34 1008.47 1008.57 1008.66 1008.71 1008.70 1008.62 1008.45 1008.18 1007.85 1007.47 1007.08 1006.70 1006.37 1006.11
1010.91 1010.86 1010.84 1010.91 1011.09 1011.39 1011.80 1012.26 1012.69 1013.01 1013.12 1012.97 1012.54 1011.83 1010.92 1009.88 1008.83 1007.88 1007.10 1006.56 1006.26 1006.20 1006.32 1006.57 1006.89 1007.22 1007.53 1007.80 1008.03 1008.23 1008.40 1008.55 1008.67 1008.76 1008.79 1008.75 1008.64 1008.44 1008.18 1007.86 1007.51 1007.16 1006.82 1006.51
1011.31 1011.31 1011.29 1011.30 1011.36 1011.49 1011.70 1011.96 1012.21 1012.38 1012.41 1012.25 1011.87 1011.27 1010.48 1009.59 1008.67 1007.81 1007.08 1006.54 1006.22 1006.09 1006.15 1006.34 1006.61 1006.92 1007.23 1007.53 1007.79 1008.03 1008.24 1008.42 1008.57 1008.69 1008.76 1008.78 1008.73 1008.62 1008.43 1008.20 1007.92 1007.61 1007.29 1006.98
1011.71 1011.75 1011.72 1011.65 1011.56 1011.51 1011.49 1011.51 1011.54 1011.54 1011.48 1011.29 1010.96 1010.47 1009.85 1009.13 1008.38 1007.65 1007.02 1006.52 1006.19 1006.02 1006.02 1006.14 1006.35 1006.61 1006.90 1007.19 1007.46 1007.71 1007.94 1008.15 1008.33 1008.48 1008.59 1008.66 1008.68 1008.65 1008.56 1008.42 1008.23 1008.00 1007.74 1007.46
1012.02 1012.09 1012.04 1011.88 1011.66 1011.41 1011.17 1010.96 1010.79 1010.63 1010.46 1010.25 1009.97 1009.60 1009.14 1008.60 1008.03 1007.46 1006.93 1006.50 1006.17 1005.97 1005.90 1005.94 1006.07 1006.27 1006.51 1006.76 1007.02 1007.28 1007.52 1007.74 1007.94 1008.12 1008.27 1008.39 1008.48 1008.53 1008.54 1008.50 1008.41 1008.28 1008.11 1007.91
1012.16 1012.24 1012.17 1011.95 1011.62 1011.23 1010.82 1010.44 1010.10 1009.81 1009.57 1009.34 1009.11 1008.85 1008.54 1008.17 1007.76 1007.33 1006.90 1006.51 1006.18 1005.93 1005.78 1005.73 1005.76 1005.87 1006.04 1006.25 1006.49 1006.73 1006.97 1007.21 1007.43 1007.64 1007.84 1008.01 1008.17 1008.30 1008.40 1008.46 1008.49 1008.46 1008.40 1008.29
1012.10 1012.19 1012.11 1011.87 1011.50 1011.04 1010.55 1010.07 1009.64 1009.29 1009.01 1008.80 1008.62 1008.44 1008.25 1008.01 1007.72 1007.38 1007.01 1006.63 1006.26 1005.94 1005.69 1005.52 1005.44 1005.44 1005.52 1005.67 1005.86 1006.09 1006.34 1006.59 1006.84 1007.09 1007.33 1007.56 1007.79 1007.99 1008.18 1008.34 1008.47 1008.55 1008.59 1008.58
1011.87 1011.97 1011.93 1011.72 1011.39 1010.96 1010.48 1010.01 1009.59 1009.24 1008.97 1008.79 1008.66 1008.55 1008.43 1008.26 1008.03 1007.72 1007.35 1006.92 1006.48 1006.04 1005.65 1005.34 1005.11 1004.99 1004.97 1005.04 1005.18 1005.39 1005.64 1005.92 1006.21 1006.51 1006.80 1007.10 1007.38 1007.66 1007.92 1008.17 1008.38 1008.56 1008.70 1008.79
1011.54 1011.69 1011.72 1011.62 1011.41 1011.10 1010.75 1010.38 1010.05 1009.77 1009.57 1009.43 1009.34 1009.27 1009.17 1009.01 1008.76 1008.41 1007.97 1007.44 1006.86 1006.27 1005.71 1005.22 1004.83 1004.56 1004.42 1004.40 1004.49 1004.68 1004.93 1005.24 1005.57 1005.92 1006.28 1006.63 1006.99 1007.33 1007.66 1007.97 1008.26 1008.51 1008.72 1008.89
1011.27 1011.48 1011.63 1011.70 1011.67 1011.57 1011.41 1011.22 1011.03 1010.87 1010.75 1010.67 1010.60 1010.52 1010.39 1010.18 1009.85 1009.41 1008.83 1008.16 1007.41 1006.63 1005.88 1005.20 1004.63 1004.20 1003.92 1003.80 1003.83 1003.98 1004.24 1004.56 1004.94 1005.35 1005.77 1006.19 1006.60 1007.00 1007.39 1007.76 1008.10 1008.40 1008.67 1008.90
1011.18 1011.49 1011.79 1012.05 1012.25 1012.38 1012.44 1012.46 1012.44 1012.40 1012.36 1012.31 1012.24 1012.11 1011.91 1011.60 1011.15 1010.56 1009.84 1008.99 1008.06 1007.09 1006.14 1005.27 1004.52 1003.92 1003.51 1003.28 1003.23 1003.33 1003.58 1003.92 1004.33 1004.78 1005.26 1005.73 1006.21 1006.66 1007.10 1007.51 1007.89 1008.24 1008.55 1008.83
1011.37 1011.81 1012.27 1012.73 1013.14 1013.49 1013.76 1013.95 1014.06 1014.12 1014.12 1014.06 1013.94 1013.74 1013.43 1013.00 1012.42 1011.68 1010.80 1009.80 1008.70 1007.57 1006.46 1005.42 1004.50 1003.76 1003.21 1002.86 1002.72 1002.77 1002.97 1003.31 1003.73 1004.21 1004.72 1005.25 1005.77 1006.27 1006.75 1007.20 1007.62 1008.01 1008.37 1008.68
1011.91 1012.47 1013.08 1013.70 1014.27 1014.77 1015.17 1015.46 1015.64 1015.72 1015.70 1015.59 1015.38 1015.07 1014.64 1014.08 1013.38 1012.53 1011.54 1010.42 1009.22 1007.98 1006.76 1005.60 1004.56 1003.69 1003.02 1002.57 1002.33 1002.30 1002.44 1002.74 1003.15 1003.63 1004.16 1004.71 1005.27 1005.81 1006.33 1006.82 1007.29 1007.72 1008.12 1008.49
1012.76 1013.42 1014.13 1014.84 1015.48 1016.04 1016.46 1016.75 1016.89 1016.90 1016.79 1016.57 1016.24 1015.81 1015.27 1014.61 1013.83 1012.91 1011.88 1010.73 1009.51 1008.24 1006.97 1005.77 1004.67 1003.72 1002.96 1002.40 1002.06 1001.93 1002.00 1002.23 1002.58 1003.04 1003.56 1004.11 1004.69 1005.26 1005.82 1006.36 1006.88 1007.37 1007.83 1008.26
1013.83 1014.55 1015.29 1015.99 1016.60 1017.09 1017.43 1017.59 1017.60 1017.45 1017.18 1016.80 1016.33 1015.78 1015.15 1014.43 1013.63 1012.73 1011.73 1010.64 1009.48 1008.27 1007.05 1005.87 1004.77 1003.79 1002.98 1002.34 1001.91 1001.68 1001.64 1001.77 1002.05 1002.44 1002.92 1003.46 1004.04 1004.63 1005.23 1005.82 1006.40 1006.96 1007.49 1008.00
1014.97 1015.70 1016.38 1016.98 1017.46 1017.77 1017.90 1017.84 1017.62 1017.26 1016.79 1016.23 1015.61 1014.96 1014.28 1013.56 1012.79 1011.98 1011.09 1010.14 1009.13 1008.06 1006.97 1005.88 1004.84 1003.88 1003.04 1002.35 1001.83 1001.50 1001.35 1001.38 1001.55 1001.86 1002.28 1002.78 1003.34 1003.95 1004.58 1005.22 1005.86 1006.50 1007.12 1007.72
1016.04 1016.69 1017.25 1017.66 1017.91 1017.95 1017.81 1017.48 1016.98 1016.37 1015.68 1014.95 1014.22 1013.50 1012.80 1012.13 1011.46 1010.78 1010.07 1009.31 1008.50 1007.62 1006.70 1005.75 1004.81 1003.91 1003.09 1002.37 1001.79 1001.36 1001.11 1001.02 1001.09 1001.30 1001.64 1002.09 1002.63 1003.24 1003.89 1004.58 1005.29 1006.00 1006.71 1007.39
Thickness
5798 5787 5783 5794 5797 5797 5798 5799 5801 5817 5831 5810 5796 5798 5815 5831 5826 5817 5811 5804 5797 5793 5795 5794 5794 5795 5795 5794 5792 5789 5784 5782 5780 5777 5774 5773 5773 5775 5776 5778 5780 5779 5777 5776
5788 5780 5797 5800 5797 5793 5792 5789 5794 5808 5819 5804 5793 5795 5809 5820 5819 5813 5804 5797 5790 5785 5783 5781 5780 5781 5781 5780 5780 5778 5775 5773 5771 5768 5767 5766 5766 5767 5769 5770 5771 5770 5768 5765
5778 5783 5793 5789 5786 5783 5785 5784 5784 5781 5788 5792 5782 5781 5800 5818 5815 5802 5796 5790 5786 5780 5774 5773 5773 5772 5772 5771 5770 5770 5767 5764 5762 5761 5759 5758 5758 5758 5759 5760 5761 5763 5761 5758
5780 5793 5785 5779 5779 5783 5770 5785 5778 5771 5764 5762 5772 5757 5788 5804 5791 5786 5782 5780 5777 5774 5772 5768 5765 5763 5762 5762 5763 5761 5759 5757 5754 5752 5748 5746 5744 5744 5749 5751 5754 5756 5755 5752
5773 5782 5776 5770 5777 5780 5772 5780 5772 5767 5761 5757 5767 5760 5780 5798 5771 5766 5767 5770 5771 5770 5767 5762 5759 5757 5756 5755 5753 5752 5751 5749 5748 5745 5742 5739 5739 5741 5744 5746 5746 5746 5747 5746
5776 5786 5782 5778 5784 5783 5777 5768 5766 5769 5764 5744 5755 5749 5761 5773 5768 5763 5765 5766 5765 5765 5763 5760 5758 5755 5751 5749 5746 5745 5742 5740 5739 5737 5737 5736 5734 5734 5734 5734 5734 5735 5736 5736
5758 5772 5783 5785 5770 5773 5766 5745 5732 5737 5746 5740 5745 5743 5759 5776 5784 5777 5768 5763 5762 5762 5759 5755 5751 5748 5744 5742 5740 5737 5733 5730 5729 5729 5729 5729 5729 5728 5727 5725 5725 5724 5724 5724
5742 5743 5769 5778 5767 5756 5756 5746 5723 5712 5719 5737 5754 5756 5776 5786 5784 5779 5772 5766 5762 5758 5755 5750 5747 5744 5740 5737 5734 5729 5724 5720 5719 5719 5719 5720 5720 5719 5718 5716 5714 5714 5713 5713
5743 5745 5776 5781 5778 5765 5750 5751 5758 5738 5731 5729 5749 5766 5774 5770 5766 5765 5763 5759 5755 5753 5750 5746 5744 5739 5734 5730 5725 5720 5715 5712 5710 5708 5708 5708 5707 5706 5705 5704 5702 5701 5700 5701
5760 5745 5765 5780 5778 5772 5763 5757 5744 5726 5709 5708 5727 5742 5743 5747 5750 5755 5753 5751 5751 5749 5746 5742 5737 5731 5725 5721 5716 5712 5707 5702 5699 5697 5695 5694 5693 5691 5690 5689 5686 5685 5684 5684
5764 5745 5752 5765 5760 5755 5757 5748 5741 5735 5727 5704 5697 5721 5762 5755 5754 5751 5750 5749 5746 5743 5739 5736 5729 5723 5717 5712 5706 5701 5697 5694 5690 5686 5684 5681 5679 5677 5675 5672 5669 5668 5667 5668
5760 5748 5738 5751 5770 5775 5766 5756 5745 5720 5716 5719 5708 5721 5766 5758 5757 5753 5747 5744 5741 5736 5733 5729 5723 5716 5708 5702 5697 5693 5689 5685 5681 5677 5674 5670 5667 5664 5661 5658 5654 5652 5652 5653
5751 5732 5717 5732 5749 5759 5752 5753 5750 5743 5731 5719 5709 5723 5764 5759 5754 5751 5745 5741 5736 5732 5728 5724 5717 5709 5702 5696 5691 5687 5683 5679 5675 5671 5667 5662 5658 5654 5650 5647 5643 5639 5638 5640
5757 5734 5719 5711 5724 5740 5742 5749 5753 5744 5727 5722 5725 5732 5747 5748 5744 5743 5740 5735 5731 5727 5723 5718 5712 5705 5699 5693 5686 5681 5677 5674 5670 5666 5661 5657 5652 5648 5643 5639 5635 5630 5628 5629
5756 5735 5736 5739 5745 5749 5748 5750 5752 5745 5740 5728 5729 5731 5736 5736 5734 5732 5730 5725 5721 5718 5717 5714 5708 5703 5696 5689 5683 5678 5673 5670 5666 5662 5658 5654 5649 5644 5640 5636 5631 5627 5624 5624
5755 5736 5733 5733 5743 5749 5749 5755 5753 5748 5744 5737 5730 5725 5735 5733 5728 5721 5717 5713 5709 5709 5710 5709 5705 5699 5692 5686 5679 5674 5670 5667 5663 5659 5656 5652 5647 5642 5638 5634 5631 5626 5623 5622
5744 5732 5721 5722 5738 5738 5731 5747 5745 5741 5738 5727 5712 5713 5720 5714 5707 5704 5703 5702 5701 5703 5703 5700 5698 5694 5689 5683 5678 5671 5668 5665 5661 5657 5654 5650 5644 5639 5635 5633 5630 5626 5623 5621
5742 5726 5716 5715 5717 5703 5735 5756 5748 5736 5727 5716 5709 5705 5701 5696 5696 5697 5697 5691 5688 5690 5691 5692 5691 5689 5687 5682 5676 5671 5667 5663 5659 5655 5651 5647 5642 5637 5633 5630 5627 5624 5622 5619
5747 5723 5711 5707 5704 5715 5733 5730 5724 5711 5699 5687 5684 5682 5681 5682 5682 5685 5685 5679 5677 5679 5683 5685 5688 5687 5685 5680 5674 5668 5664 5660 5656 5653 5650 5646 5641 5635 5630 5626 5624 5622 5619 5616
5742 5725 5707 5700 5686 5679 5693 5710 5716 5702 5682 5665 5663 5658 5658 5659 5648 5653 5662 5665 5666 5668 5674 5679 5684 5685 5681 5677 5672 5664 5660 5657 5654 5653 5650 5645 5640 5634 5628 5624 5622 5620 5617 5613
5724 5713 5701 5691 5682 5689 5669 5689 5691 5662 5637 5640 5640 5635 5632 5628 5626 5634 5642 5646 5648 5652 5658 5664 5669 5675 5677 5675 5668 5661 5657 5655 5655 5654 5650 5644 5639 5633 5628 5623 5619 5616 5613 5610
5717 5707 5700 5693 5678 5667 5655 5658 5634 5616 5615 5612 5610 5607 5604 5605 5609 5613 5617 5623 5629 5634 5640 5644 5648 5654 5666 5669 5664 5658 5654 5654 5654 5652 5649 5643 5637 5633 5629 5621 5617 5614 5610 5606
5705 5693 5693 5677 5649 5629 5628 5618 5608 5602 5595 5592 5589 5587 5584 5583 5584 5586 5590 5597 5606 5612 5618 5624 5629 5634 5642 5654 5655 5651 5651 5651 5649 5648 5645 5641 5636 5632 5629 5621 5615 5611 5608 5605
5694 5687 5680 5657 5630 5623 5612 5604 5595 5588 5582 5579 5575 5572 5569 5566 5566 5567 5569 5574 5582 5591 5598 5605 5611 5616 5621 5629 5639 5644 5645 5645 5643 5643 5641 5638 5633 5629 5625 5620 5617 5613 5610 5606
5657 5655 5647 5631 5612 5608 5601 5590 5582 5577 5571 5566 5564 5561 5557 5555 5555 5556 5557 5561 5564 5570 5579 5586 5593 5599 5605 5609 5619 5631 5637 5637 5636 5636 5637 5635 5631 5627 5623 5619 5617 5615 5613 5610
5634 5624 5615 5601 5590 5582 5578 5573 5566 5560 5556 5554 5551 5550 5547 5540 5536 5537 5540 5543 5546 5551 5559 5567 5576 5585 5592 5597 5602 5613 5626 5630 5630 5629 5631 5631 5629 5625 5621 5616 5611 5604 5608 5607